Date String (YYYY-MM-DD hh:mm:ss) UTC,Instrument flags,Ambient pressure (hPa),Sample flow (lpm),Bypass flow (lpm),Sample temperature (°C),Ambient temperature (°C),ASC tube jacket temperature (°C),LED temperature (°C),Box temperature (°C),Sample RH (%),Span deviation,Mass concentration (μg/m³),Mass concentration (μg/m³),Mass concentration (μg/m³)
DateTimeUTC,F1_M11,P_M11,Q1_M11,Q2_M11,T1_M11,T2_M11,T3_M11,T4_M11,T5_M11,U1_M11,ZSPAN_M11,X2_M11,X0_M11,X1_M11
2021-10-08 18:00:00,,0826.9,4.99,0.00,29.8,28.8,00.0,38.8,31.6,17.2,0000.0,0004.89,0015.91,0003.69
2021-10-08 18:01:00,,0826.9,5.00,0.00,29.8,28.9,00.0,38.8,31.7,17.1,0000.0,0004.91,0016.27,0003.68
2021-10-08 18:02:00,,0826.9,5.00,0.00,29.9,29.0,00.0,38.8,31.7,17.2,0000.0,0004.91,0016.67,0003.67
2021-10-08 18:03:00,,0826.9,5.01,0.00,29.9,29.1,00.0,38.8,31.8,17.1,0000.0,0004.84,0016.08,0003.66
2021-10-08 18:04:00,,0827.0,5.01,0.00,30.0,29.2,00.0,38.8,31.8,17.1,0000.0,0004.81,0016.08,0003.65
2021-10-08 18:05:00,,0826.9,4.99,0.00,30.0,29.2,00.0,38.9,31.9,17.5,0000.0,0004.78,0016.05,0003.65
2021-10-08 18:06:00,,0826.9,4.99,0.00,30.0,29.1,00.0,38.9,31.9,17.6,0000.2,0004.74,0015.88,0003.66
2021-10-08 18:07:00,,0827.1,5.01,0.00,30.0,27.4,00.0,38.9,31.4,17.4,0000.2,0004.73,0015.42,0003.66
2021-10-08 18:08:00,,0826.8,5.01,0.00,29.8,26.0,00.0,38.9,31.0,17.6,0000.0,0004.75,0014.56,0003.68
2021-10-08 18:09:00,,0826.9,5.00,0.00,29.7,26.2,00.0,38.9,31.0,17.8,0000.2,0004.76,0013.82,0003.69
2021-10-08 18:10:00,,0826.8,5.00,0.00,29.6,26.6,00.0,38.8,31.1,18.4,0000.4,0004.78,0012.63,0003.70
2021-10-08 18:11:00,,0826.8,5.00,0.00,29.6,27.1,00.0,38.8,31.2,18.1,0000.1,0004.79,0012.28,0003.74
2021-10-08 18:12:00,,0826.9,4.99,0.00,29.6,27.5,00.0,38.7,31.3,17.4,0000.0,0004.80,0011.88,0003.75
2021-10-08 18:13:00,,0827.0,5.00,0.00,29.6,27.9,00.0,38.7,31.3,17.5,0000.0,0004.80,0011.53,0003.75
2021-10-08 18:14:00,,0827.1,5.01,0.00,29.7,28.1,00.0,38.7,31.4,17.7,0000.0,0004.82,0011.98,0003.77
2021-10-08 18:15:00,,0826.8,4.98,0.00,29.7,28.4,00.0,38.7,31.5,17.6,0000.0,0004.84,0012.55,0003.80
2021-10-08 18:16:00,,0826.9,5.00,0.00,29.7,28.6,00.0,38.7,31.6,17.9,0000.0,0004.89,0012.21,0003.81
2021-10-08 18:17:00,,0826.8,5.01,0.00,29.8,28.7,00.0,38.7,31.6,18.1,0000.0,0004.92,0012.41,0003.82
2021-10-08 18:18:00,,0826.8,5.00,0.00,29.8,28.9,00.0,38.8,31.7,17.8,0000.0,0004.94,0012.90,0003.83
2021-10-08 18:19:00,,0826.8,5.00,0.00,29.9,29.0,00.0,38.8,31.7,17.5,0000.0,0004.97,0013.82,0003.83
2021-10-08 18:20:00,,0826.7,5.00,0.00,29.9,29.1,00.0,38.8,31.8,17.5,0000.0,0005.00,0014.95,0003.83
2021-10-08 18:21:00,,0826.8,5.00,0.00,29.9,29.2,00.0,38.8,31.8,17.4,0000.0,0005.07,0016.26,0003.84
2021-10-08 18:22:00,,0826.8,4.99,0.00,30.0,29.2,00.0,38.9,31.9,17.5,0000.0,0005.09,0017.02,0003.83
2021-10-08 18:23:00,,0826.8,5.00,0.00,30.0,29.2,00.0,38.9,31.9,17.6,0000.0,0005.08,0017.66,0003.84
2021-10-08 18:24:00,,0827.0,5.01,0.00,30.0,27.6,00.0,38.9,31.5,17.6,0000.0,0005.06,0017.32,0003.87
2021-10-08 18:25:00,,0826.8,5.01,0.00,29.8,26.1,00.0,38.9,31.1,17.7,0000.0,0005.12,0017.21,0003.88
2021-10-08 18:26:00,,0826.8,4.99,0.00,29.7,26.3,00.0,38.9,31.1,17.7,0000.0,0005.17,0017.24,0003.88
2021-10-08 18:27:00,,0826.9,5.01,0.00,29.7,26.7,00.0,38.8,31.2,18.0,0001.8,0005.14,0016.90,0003.88
2021-10-08 18:28:00,,0827.1,4.98,0.00,29.6,27.2,00.0,38.8,31.2,18.1,0001.4,0005.16,0016.79,0003.89
2021-10-08 18:29:00,,0826.9,5.01,0.00,29.6,27.6,00.0,38.7,31.3,17.8,0002.4,0005.18,0017.31,0003.90
2021-10-08 18:30:00,,0826.9,5.00,0.00,29.7,27.9,00.0,38.7,31.4,17.7,0002.8,0005.19,0017.52,0003.91
2021-10-08 18:31:00,,0826.9,5.00,0.00,29.7,28.2,00.0,38.7,31.5,17.7,0000.0,0005.18,0016.65,0003.92
2021-10-08 18:32:00,,0826.9,5.00,0.00,29.7,28.5,00.0,38.7,31.6,17.8,0000.0,0005.17,0015.33,0003.93
2021-10-08 18:33:00,,0827.1,5.00,0.00,29.8,28.7,00.0,38.7,31.6,17.8,0000.0,0005.12,0014.50,0003.93
2021-10-08 18:34:00,,0827.1,5.00,0.00,29.8,28.8,00.0,38.8,31.7,17.7,0000.0,0005.14,0014.43,0003.94
2021-10-08 18:35:00,,0827.3,5.00,0.00,29.9,28.9,00.0,38.8,31.8,17.7,0000.0,0005.14,0014.26,0003.93
2021-10-08 18:36:00,,0827.1,5.02,0.00,29.9,29.1,00.0,38.8,31.8,17.3,0000.0,0005.09,0014.39,0003.93
2021-10-08 18:37:00,,0827.0,5.02,0.00,30.0,29.2,00.0,38.8,31.9,17.1,0000.0,0005.05,0014.77,0003.94
2021-10-08 18:38:00,,0827.2,5.01,0.00,30.0,29.1,00.0,38.9,31.9,17.1,0000.0,0005.08,0015.21,0003.93
2021-10-08 18:39:00,,0826.9,4.99,0.00,29.9,27.4,00.0,38.9,31.4,17.1,0000.0,0005.08,0016.13,0003.93
2021-10-08 18:40:00,,0827.1,5.00,0.00,29.7,26.0,00.0,38.8,30.9,17.5,0000.0,0005.11,0016.29,0003.93
2021-10-08 18:41:00,,0826.8,5.01,0.00,29.6,26.2,00.0,38.8,31.0,17.4,0000.0,0005.15,0015.75,0003.93
2021-10-08 18:42:00,,0826.7,5.00,0.00,29.6,26.6,00.0,38.8,31.1,17.5,0000.0,0005.16,0016.79,0003.93
2021-10-08 18:43:00,,0826.7,5.00,0.00,29.6,27.1,00.0,38.7,31.2,17.6,0000.0,0005.13,0018.27,0003.92
2021-10-08 18:44:00,,0826.7,5.00,0.00,29.6,27.5,00.0,38.7,31.3,17.5,0000.0,0005.11,0018.96,0003.91
2021-10-08 18:45:00,,0826.7,5.00,0.00,29.6,27.9,00.0,38.7,31.4,17.5,0000.0,0005.13,0018.73,0003.91
2021-10-08 18:46:00,,0826.7,5.00,0.00,29.6,28.2,00.0,38.7,31.4,17.5,0000.0,0005.16,0019.11,0003.91
2021-10-08 18:47:00,,0826.6,5.00,0.00,29.7,28.4,00.0,38.7,31.5,17.4,0000.0,0005.24,0019.37,0003.90
2021-10-08 18:48:00,,0826.5,5.01,0.00,29.7,28.6,00.0,38.7,31.6,17.2,0000.0,0005.29,0019.20,0003.90
2021-10-08 18:49:00,,0826.5,4.99,0.00,29.8,28.8,00.0,38.7,31.7,17.1,0000.0,0005.29,0020.05,0003.90
2021-10-08 18:50:00,,0826.5,5.00,0.00,29.8,28.9,00.0,38.7,31.7,17.0,0000.0,0005.25,0018.92,0003.88
2021-10-08 18:51:00,,0826.5,5.01,0.00,29.9,29.0,00.0,38.8,31.8,17.2,0000.0,0005.24,0018.17,0003.87
2021-10-08 18:52:00,,0826.5,4.99,0.00,29.9,29.1,00.0,38.8,31.8,16.9,0000.0,0005.20,0018.40,0003.86
2021-10-08 18:53:00,,0826.5,5.01,0.00,30.0,29.2,00.0,38.8,31.9,16.7,0000.0,0005.21,0017.29,0003.84
2021-10-08 18:54:00,,0826.4,4.99,0.00,30.0,29.1,00.0,38.9,31.9,16.7,0000.0,0005.22,0016.09,0003.84
2021-10-08 18:55:00,,0826.2,5.01,0.00,29.9,27.3,00.0,38.9,31.4,16.7,0000.0,0005.28,0016.49,0003.83
2021-10-08 18:56:00,,0826.1,5.00,0.00,29.7,25.9,00.0,38.8,30.9,16.7,0000.0,0005.29,0016.56,0003.81
2021-10-08 18:57:00,,0826.1,5.00,0.00,29.6,26.1,00.0,38.8,31.0,17.0,0000.0,0005.24,0015.82,0003.79
2021-10-08 18:58:00,,0826.2,5.00,0.00,29.6,26.5,00.0,38.8,31.1,17.2,0000.0,0005.18,0015.22,0003.76
2021-10-08 18:59:00,,0826.1,5.00,0.00,29.5,27.0,00.0,38.7,31.1,17.1,0000.0,0005.15,0015.77,0003.74
